C/2023 T3 ( Fuls )

Japanese version
Home page
Updated on December 21, 2024

---------------------------------------------------------------------

* Profile

Discovery Date October 15, 2023
Magnitude 18.5 mag
Discoverer David Carson Fuls (Mt. Lemmon Survey)

* Pictures

* Orbital Elements

Epoch 2024 Mar. 31.0 TT = JDT 2460400.5
T 2025 Jan. 25.38190 TT                                 Rudenko
q   3.5483669            (2000.0)            P               Q
z  +0.0014134      Peri.  302.84854     -0.90308750     +0.09896593
 +/-0.0000068      Node   246.00161     -0.02301168     -0.98283881
e   0.9949847      Incl.   27.22207     -0.42883963     -0.15567154
>From 489 observations 2023 Sept. 9-2024 June 17, mean residual 0".4.

* Finding Charts

* Magnitudes Graph

        m1 = 7.7 + 5 log d + 10.0 log r

---------------------------------------------------------------------

The orbital elements are published on M.P.E.C. 2024-M41.
The charts are made with StellaNavigator Ver.11 (AstroArts).
The magnitudes graphs are made with Comet for Windows.

---------------------------------------------------------------------

Copyright(C) Seiichi Yoshida (comet@aerith.net). All rights reserved.